Location: Allos
(44.2333°N, 6.6333°E)
Time: 17:08:41
(UTC+00:00)

Cosmos 2228 Rocket - Pass Details

Date: 02 May 2021
Orbit: 618 x 652 km, 82.5° (Epoch: 10 May)

Event Time Altitude Azimuth Distance (km) Brightness Sun altitude
Exits shadow 21:43:27 19° 58° (ENE) 1,489 5.0 -25.3°
Drops below altitude 10° 21:45:22 10° 36° (NE) 1,999 6.0 -25.5°
Sets 21:47:57 0° 22° (NNE) 2,915 7.1 -25.7°
